"Sample Date","Sample Time","Sample Value","Units","Flow Rate","Sample Interval","Number Channels","Micron Size 0","Counts/Channel 0","Micron Size 1","Counts/Channel 1","Micron Size 2","Counts/Channel 2","Micron Size 3","Counts/Channel 3","Micron Size 4","Counts/Channel 4","Micron Size 5","Counts/Channel 5","Micron Size 6","Counts/Channel 6","Micron Size 7","Counts/Channel 7","Micron Size 8","Counts/Channel 8","Micron Size 9","Counts/Channel 9","Micron Size 10","Counts/Channel 10","Micron Size 11","Counts/Channel 11","Micron Size 12","Counts/Channel 12","Micron Size 13","Counts/Channel 13","Micron Size 14","Counts/Channel 14","Micron Size 15","Counts/Channel 15","Micron Size 16","Counts/Channel 16","Micron Size 17","Counts/Channel 17","Micron Size 18","Counts/Channel 18","Micron Size 19","Counts/Channel 19","Micron Size 20","Counts/Channel 20","Micron Size 21","Counts/Channel 21","Micron Size 22","Counts/Channel 22","Micron Size 23","Counts/Channel 23","Micron Size 24","Counts/Channel 24","Micron Size 25","Counts/Channel 25","Micron Size 26","Counts/Channel 26","Micron Size 27","Counts/Channel 27","Micron Size 28","Counts/Channel 28","Micron Size 29","Counts/Channel 29","Micron Size 30","Counts/Channel 30","Micron Size 31","Counts/Channel 31"
"04/05/08","05:00:00",11773.000,"cc",28349.557,6.00,6,0.100,11501.000,0.200,271.000,0.300,1.000,0.500,0,1.000,0,5.000,0
"04/05/08","05:00:06",11916.000,"cc",28250.311,6.00,6,0.100,11618.000,0.200,291.000,0.300,7.000,0.500,0,1.000,0,5.000,0
"04/05/08","05:00:12",11561.000,"cc",28372.350,6.00,6,0.100,11293.000,0.200,264.000,0.300,3.000,0.500,0,1.000,1.000,5.000,0
"04/05/08","05:00:18",11787.000,"cc",28319.307,6.00,6,0.100,11531.000,0.200,254.000,0.300,2.000,0.500,0,1.000,0,5.000,0
"04/05/08","05:00:24",11931.000,"cc",28304.453,6.00,6,0.100,11651.000,0.200,279.000,0.300,1.000,0.500,0,1.000,0,5.000,0
"04/05/08","05:00:30",12048.000,"cc",28318.418,6.00,6,0.100,11785.000,0.200,260.000,0.300,3.000,0.500,0,1.000,0,5.000,0
"04/05/08","05:00:36",11639.000,"cc",28322.959,6.00,6,0.100,11400.000,0.200,238.000,0.300,1.000,0.500,0,1.000,0,5.000,0
"04/05/08","05:00:42",12154.000,"cc",28333.012,6.00,6,0.100,11876.000,0.200,275.000,0.300,3.000,0.500,0,1.000,0,5.000,0
"04/05/08","05:00:48",11734.000,"cc",28294.893,6.00,6,0.100,11485.000,0.200,244.000,0.300,5.000,0.500,0,1.000,0,5.000,0
"04/05/08","05:00:54",11097.000,"cc",28333.588,6.00,6,0.100,10895.000,0.200,199.000,0.300,3.000,0.500,0,1.000,0,5.000,0
"04/05/08","05:01:00",11216.000,"cc",28363.623,6.00,6,0.100,11022.000,0.200,193.000,0.300,1.000,0.500,0,1.000,0,5.000,0
"04/05/08","05:01:06",11383.000,"cc",28366.004,6.00,6,0.100,11154.000,0.200,226.000,0.300,3.000,0.500,0,1.000,0,5.000,0
"04/05/08","05:01:12",11308.000,"cc",28224.850,6.00,6,0.100,11103.000,0.200,204.000,0.300,1.000,0.500,0,1.000,0,5.000,0
"04/05/08","05:01:18",11472.000,"cc",28326.650,6.00,6,0.100,11245.000,0.200,224.000,0.300,3.000,0.500,0,1.000,0,5.000,0
"04/05/08","05:01:24",11557.000,"cc",28296.973,6.00,6,0.100,11298.000,0.200,257.000,0.300,2.000,0.500,0,1.000,0,5.000,0
"04/05/08","05:01:30",11766.000,"cc",28309.256,6.00,6,0.100,11534.000,0.200,229.000,0.300,2.000,0.500,1.000,1.000,0,5.000,0
"04/05/08","05:01:36",11397.000,"cc",28348.738,6.00,6,0.100,11188.000,0.200,205.000,0.300,4.000,0.500,0,1.000,0,5.000,0
"04/05/08","05:01:42",11889.000,"cc",28310.625,6.00,6,0.100,11639.000,0.200,246.000,0.300,4.000,0.500,0,1.000,0,5.000,0
"04/05/08","05:01:48",11383.000,"cc",28240.951,6.00,6,0.100,11158.000,0.200,223.000,0.300,2.000,0.500,0,1.000,0,5.000,0
"04/05/08","05:01:54",11755.000,"cc",28380.340,6.00,6,0.100,11505.000,0.200,248.000,0.300,2.000,0.500,0,1.000,0,5.000,0
"04/05/08","05:02:00",11787.000,"cc",28263.377,6.00,6,0.100,11505.000,0.200,277.000,0.300,4.000,0.500,1.000,1.000,0,5.000,0
"04/05/08","05:02:06",11990.000,"cc",28320.602,6.00,6,0.100,11753.000,0.200,235.000,0.300,2.000,0.500,0,1.000,0,5.000,0
"04/05/08","05:02:12",12051.000,"cc",28291.082,6.00,6,0.100,11814.000,0.200,237.000,0.300,0,0.500,0,1.000,0,5.000,0
"04/05/08","05:02:18",12335.000,"cc",28366.492,6.00,6,0.100,12071.000,0.200,262.000,0.300,2.000,0.500,0,1.000,0,5.000,0
"04/05/08","05:02:24",11824.000,"cc",28313.631,6.00,6,0.100,11615.000,0.200,206.000,0.300,3.000,0.500,0,1.000,0,5.000,0
"04/05/08","05:02:30",12138.000,"cc",28390.326,6.00,6,0.100,11905.000,0.200,230.000,0.300,3.000,0.500,0,1.000,0,5.000,0
"04/05/08","05:02:36",12249.000,"cc",28330.688,6.00,6,0.100,11981.000,0.200,263.000,0.300,5.000,0.500,0,1.000,0,5.000,0
"04/05/08","05:02:42",12319.000,"cc",28302.055,6.00,6,0.100,12055.000,0.200,260.000,0.300,4.000,0.500,0,1.000,0,5.000,0
"04/05/08","05:02:48",12254.000,"cc",28308.611,6.00,6,0.100,11998.000,0.200,253.000,0.300,3.000,0.500,0,1.000,0,5.000,0
"04/05/08","05:02:54",12313.000,"cc",28286.981,6.00,6,0.100,12043.000,0.200,265.000,0.300,4.000,0.500,1.000,1.000,0,5.000,0
"04/05/08","05:03:00",11649.000,"cc",28330.000,6.00,6,0.100,11416.000,0.200,232.000,0.300,1.000,0.500,0,1.000,0,5.000,0
"04/05/08","05:03:06",12647.000,"cc",28309.512,6.00,6,0.100,12387.000,0.200,260.000,0.300,0,0.500,0,1.000,0,5.000,0
"04/05/08","05:03:12",12329.000,"cc",28305.670,6.00,6,0.100,12043.000,0.200,284.000,0.300,2.000,0.500,0,1.000,0,5.000,0
"04/05/08","05:03:18",12618.000,"cc",28323.451,6.00,6,0.100,12311.000,0.200,303.000,0.300,4.000,0.500,0,1.000,0,5.000,0
"04/05/08","05:03:24",12245.000,"cc",28315.631,6.00,6,0.100,11952.000,0.200,288.000,0.300,4.000,0.500,1.000,1.000,0,5.000,0
"04/05/08","05:03:30",12825.000,"cc",28353.309,6.00,6,0.100,12497.000,0.200,322.000,0.300,6.000,0.500,0,1.000,0,5.000,0
"04/05/08","05:03:36",12486.000,"cc",28269.834,6.00,6,0.100,12216.000,0.200,264.000,0.300,6.000,0.500,0,1.000,0,5.000,0
"04/05/08","05:03:42",12688.000,"cc",28320.932,6.00,6,0.100,12429.000,0.200,256.000,0.300,3.000,0.500,0,1.000,0,5.000,0
"04/05/08","05:03:48",12500.000,"cc",28364.900,6.00,6,0.100,12232.000,0.200,264.000,0.300,4.000,0.500,0,1.000,0,5.000,0
"04/05/08","05:03:54",12802.000,"cc",28316.580,6.00,6,0.100,12517.000,0.200,284.000,0.300,1.000,0.500,0,1.000,0,5.000,0
"04/05/08","05:04:00",12442.000,"cc",28286.813,6.00,6,0.100,12122.000,0.200,314.000,0.300,6.000,0.500,0,1.000,0,5.000,0
"04/05/08","05:04:06",12762.000,"cc",28335.606,6.00,6,0.100,12420.000,0.200,339.000,0.300,3.000,0.500,0,1.000,0,5.000,0
"04/05/08","05:04:12",12426.000,"cc",28306.072,6.00,6,0.100,12116.000,0.200,308.000,0.300,2.000,0.500,0,1.000,0,5.000,0
"04/05/08","05:04:18",12663.000,"cc",28337.691,6.00,6,0.100,12397.000,0.200,263.000,0.300,3.000,0.500,0,1.000,0,5.000,0
"04/05/08","05:04:24",12747.000,"cc",28298.047,6.00,6,0.100,12439.000,0.200,306.000,0.300,2.000,0.500,0,1.000,0,5.000,0
"04/05/08","05:04:30",12559.000,"cc",28257.398,6.00,6,0.100,12258.000,0.200,299.000,0.300,2.000,0.500,0,1.000,0,5.000,0
"04/05/08","05:04:36",12500.000,"cc",28297.744,6.00,6,0.100,12215.000,0.200,284.000,0.300,1.000,0.500,0,1.000,0,5.000,0
"04/05/08","05:04:42",12685.000,"cc",28338.520,6.00,6,0.100,12355.000,0.200,323.000,0.300,7.000,0.500,0,1.000,0,5.000,0
"04/05/08","05:04:48",12689.000,"cc",28367.379,6.00,6,0.100,12427.000,0.200,261.000,0.300,1.000,0.500,0,1.000,0,5.000,0
"04/05/08","05:04:54",12579.000,"cc",28306.951,6.00,6,0.100,12253.000,0.200,325.000,0.300,1.000,0.500,0,1.000,0,5.000,0
"04/05/08","05:05:00",12775.000,"cc",28251.395,6.00,6,0.100,12456.000,0.200,316.000,0.300,3.000,0.500,0,1.000,0,5.000,0
"04/05/08","05:05:06",12626.000,"cc",28320.336,6.00,6,0.100,12313.000,0.200,307.000,0.300,4.000,0.500,2.000,1.000,0,5.000,0
"04/05/08","05:05:12",12663.000,"cc",28290.098,6.00,6,0.100,12321.000,0.200,339.000,0.300,3.000,0.500,0,1.000,0,5.000,0
"04/05/08","05:05:18",12711.000,"cc",28359.131,6.00,6,0.100,12390.000,0.200,317.000,0.300,4.000,0.500,0,1.000,0,5.000,0
"04/05/08","05:05:24",12533.000,"cc",28300.522,6.00,6,0.100,12198.000,0.200,333.000,0.300,1.000,0.500,1.000,1.000,0,5.000,0
"04/05/08","05:05:30",12851.000,"cc",28298.432,6.00,6,0.100,12575.000,0.200,275.000,0.300,1.000,0.500,0,1.000,0,5.000,0
"04/05/08","05:05:36",12911.000,"cc",28302.086,6.00,6,0.100,12609.000,0.200,299.000,0.300,3.000,0.500,0,1.000,0,5.000,0
"04/05/08","05:05:42",12786.000,"cc",28317.254,6.00,6,0.100,12480.000,0.200,304.000,0.300,2.000,0.500,0,1.000,0,5.000,0
"04/05/08","05:05:48",12636.000,"cc",28309.131,6.00,6,0.100,12362.000,0.200,272.000,0.300,2.000,0.500,0,1.000,0,5.000,0
"04/05/08","05:05:54",12562.000,"cc",28343.746,6.00,6,0.100,12298.000,0.200,261.000,0.300,3.000,0.500,0,1.000,0,5.000,0
"04/05/08","05:06:00",12697.000,"cc",28330.639,6.00,6,0.100,12447.000,0.200,247.000,0.300,3.000,0.500,0,1.000,0,5.000,0
"04/05/08","05:06:06",12736.000,"cc",28367.469,6.00,6,0.100,12429.000,0.200,300.000,0.300,7.000,0.500,0,1.000,0,5.000,0
"04/05/08","05:06:12",12517.000,"cc",28333.525,6.00,6,0.100,12190.000,0.200,322.000,0.300,5.000,0.500,0,1.000,0,5.000,0
"04/05/08","05:06:18",12997.000,"cc",28283.033,6.00,6,0.100,12679.000,0.200,312.000,0.300,6.000,0.500,0,1.000,0,5.000,0
"04/05/08","05:06:24",12546.000,"cc",28316.061,6.00,6,0.100,12243.000,0.200,300.000,0.300,2.000,0.500,1.000,1.000,0,5.000,0
"04/05/08","05:06:30",12496.000,"cc",28289.693,6.00,6,0.100,12220.000,0.200,274.000,0.300,2.000,0.500,0,1.000,0,5.000,0
"04/05/08","05:06:36",12693.000,"cc",28336.738,6.00,6,0.100,12387.000,0.200,303.000,0.300,3.000,0.500,0,1.000,0,5.000,0
"04/05/08","05:06:42",12820.000,"cc",28338.598,6.00,6,0.100,12534.000,0.200,283.000,0.300,3.000,0.500,0,1.000,0,5.000,0
"04/05/08","05:06:48",13084.000,"cc",28324.609,6.00,6,0.100,12768.000,0.200,308.000,0.300,8.000,0.500,0,1.000,0,5.000,0
"04/05/08","05:06:54",12580.000,"cc",28242.588,6.00,6,0.100,12307.000,0.200,272.000,0.300,1.000,0.500,0,1.000,0,5.000,0
"04/05/08","05:07:00",13071.000,"cc",28337.518,6.00,6,0.100,12757.000,0.200,311.000,0.300,3.000,0.500,0,1.000,0,5.000,0
"04/05/08","05:07:06",12502.000,"cc",28302.266,6.00,6,0.100,12234.000,0.200,265.000,0.300,3.000,0.500,0,1.000,0,5.000,0
"04/05/08","05:07:12",12884.000,"cc",28346.270,6.00,6,0.100,12599.000,0.200,282.000,0.300,3.000,0.500,0,1.000,0,5.000,0
"04/05/08","05:07:18",12943.000,"cc",28337.299,6.00,6,0.100,12635.000,0.200,303.000,0.300,5.000,0.500,0,1.000,0,5.000,0
"04/05/08","05:07:24",13224.000,"cc",28304.625,6.00,6,0.100,12913.000,0.200,307.000,0.300,3.000,0.500,1.000,1.000,0,5.000,0
"04/05/08","05:07:30",12776.000,"cc",28309.490,6.00,6,0.100,12492.000,0.200,282.000,0.300,2.000,0.500,0,1.000,0,5.000,0
"04/05/08","05:07:36",12816.000,"cc",28304.354,6.00,6,0.100,12545.000,0.200,266.000,0.300,5.000,0.500,0,1.000,0,5.000,0
"04/05/08","05:07:42",13169.000,"cc",28347.703,6.00,6,0.100,12869.000,0.200,297.000,0.300,3.000,0.500,0,1.000,0,5.000,0
"04/05/08","05:07:48",13219.000,"cc",28329.902,6.00,6,0.100,12923.000,0.200,293.000,0.300,3.000,0.500,0,1.000,0,5.000,0
"04/05/08","05:07:54",12959.000,"cc",28313.471,6.00,6,0.100,12693.000,0.200,263.000,0.300,3.000,0.500,0,1.000,0,5.000,0
"04/05/08","05:08:00",13072.000,"cc",28287.715,6.00,6,0.100,12766.000,0.200,304.000,0.300,2.000,0.500,0,1.000,0,5.000,0
"04/05/08","05:08:06",13303.000,"cc",28331.582,6.00,6,0.100,13041.000,0.200,260.000,0.300,2.000,0.500,0,1.000,0,5.000,0
"04/05/08","05:08:12",12841.000,"cc",28283.676,6.00,6,0.100,12546.000,0.200,290.000,0.300,5.000,0.500,0,1.000,0,5.000,0
"04/05/08","05:08:18",13349.000,"cc",28320.674,6.00,6,0.100,13053.000,0.200,293.000,0.300,3.000,0.500,0,1.000,0,5.000,0
"04/05/08","05:08:24",13118.000,"cc",28333.223,6.00,6,0.100,12802.000,0.200,314.000,0.300,2.000,0.500,0,1.000,0,5.000,0
"04/05/08","05:08:30",13286.000,"cc",28365.867,6.00,6,0.100,13048.000,0.200,234.000,0.300,4.000,0.500,0,1.000,0,5.000,0
"04/05/08","05:08:36",13052.000,"cc",28293.764,6.00,6,0.100,12793.000,0.200,256.000,0.300,3.000,0.500,0,1.000,0,5.000,0
"04/05/08","05:08:42",13474.000,"cc",28312.625,6.00,6,0.100,13158.000,0.200,312.000,0.300,4.000,0.500,0,1.000,0,5.000,0
"04/05/08","05:08:48",13203.000,"cc",28320.625,6.00,6,0.100,12917.000,0.200,283.000,0.300,2.000,0.500,1.000,1.000,0,5.000,0
"04/05/08","05:08:54",13441.000,"cc",28283.783,6.00,6,0.100,13116.000,0.200,320.000,0.300,5.000,0.500,0,1.000,0,5.000,0
"04/05/08","05:09:00",13360.000,"cc",28355.135,6.00,6,0.100,13020.000,0.200,339.000,0.300,1.000,0.500,0,1.000,0,5.000,0
"04/05/08","05:09:06",13402.000,"cc",28307.881,6.00,6,0.100,13099.000,0.200,300.000,0.300,2.000,0.500,1.000,1.000,0,5.000,0
"04/05/08","05:09:12",13503.000,"cc",28289.273,6.00,6,0.100,13164.000,0.200,337.000,0.300,2.000,0.500,0,1.000,0,5.000,0
"04/05/08","05:09:18",13460.000,"cc",28340.043,6.00,6,0.100,13146.000,0.200,310.000,0.300,4.000,0.500,0,1.000,0,5.000,0
"04/05/08","05:09:24",13362.000,"cc",28318.096,6.00,6,0.100,13063.000,0.200,297.000,0.300,2.000,0.500,0,1.000,0,5.000,0
"04/05/08","05:09:30",13687.000,"cc",28297.430,6.00,6,0.100,13313.000,0.200,363.000,0.300,11.000,0.500,0,1.000,0,5.000,0
"04/05/08","05:09:36",13538.000,"cc",28339.273,6.00,6,0.100,13223.000,0.200,312.000,0.300,3.000,0.500,0,1.000,0,5.000,0
"04/05/08","05:09:42",13201.000,"cc",28265.522,6.00,6,0.100,12922.000,0.200,273.000,0.300,4.000,0.500,2.000,1.000,0,5.000,0
"04/05/08","05:09:48",13440.000,"cc",28260.904,6.00,6,0.100,13101.000,0.200,333.000,0.300,6.000,0.500,0,1.000,0,5.000,0
"04/05/08","05:09:54",13983.000,"cc",28356.881,6.00,6,0.100,13588.000,0.200,389.000,0.300,6.000,0.500,0,1.000,0,5.000,0
"04/05/08","05:10:00",13525.000,"cc",28310.328,6.00,6,0.100,13217.000,0.200,306.000,0.300,2.000,0.500,0,1.000,0,5.000,0
"04/05/08","05:10:06",13527.000,"cc",28354.559,6.00,6,0.100,13217.000,0.200,306.000,0.300,4.000,0.500,0,1.000,0,5.000,0
"04/05/08","05:10:12",13784.000,"cc",28300.250,6.00,6,0.100,13474.000,0.200,305.000,0.300,5.000,0.500,0,1.000,0,5.000,0
"04/05/08","05:10:18",12882.000,"cc",28331.566,6.00,6,0.100,12638.000,0.200,242.000,0.300,2.000,0.500,0,1.000,0,5.000,0
"04/05/08","05:10:24",13633.000,"cc",28323.197,6.00,6,0.100,13305.000,0.200,324.000,0.300,3.000,0.500,1.000,1.000,0,5.000,0
"04/05/08","05:10:30",13535.000,"cc",28298.904,6.00,6,0.100,13212.000,0.200,315.000,0.300,7.000,0.500,1.000,1.000,0,5.000,0
"04/05/08","05:10:36",13889.000,"cc",28342.680,6.00,6,0.100,13527.000,0.200,354.000,0.300,8.000,0.500,0,1.000,0,5.000,0
"04/05/08","05:10:42",13632.000,"cc",28266.641,6.00,6,0.100,13307.000,0.200,318.000,0.300,7.000,0.500,0,1.000,0,5.000,0
"04/05/08","05:10:48",13825.000,"cc",28294.947,6.00,6,0.100,13465.000,0.200,356.000,0.300,4.000,0.500,0,1.000,0,5.000,0
"04/05/08","05:10:54",14017.000,"cc",28260.713,6.00,6,0.100,13691.000,0.200,318.000,0.300,7.000,0.500,0,1.000,1.000,5.000,0
"04/05/08","05:11:00",13623.000,"cc",28322.240,6.00,6,0.100,13309.000,0.200,311.000,0.300,1.000,0.500,2.000,1.000,0,5.000,0
"04/05/08","05:11:06",13819.000,"cc",28411.059,6.00,6,0.100,13458.000,0.200,356.000,0.300,5.000,0.500,0,1.000,0,5.000,0
"04/05/08","05:11:12",14055.000,"cc",28262.117,6.00,6,0.100,13717.000,0.200,333.000,0.300,5.000,0.500,0,1.000,0,5.000,0
"04/05/08","05:11:18",14018.000,"cc",28290.438,6.00,6,0.100,13657.000,0.200,354.000,0.300,6.000,0.500,1.000,1.000,0,5.000,0
"04/05/08","05:11:24",14074.000,"cc",28351.830,6.00,6,0.100,13714.000,0.200,356.000,0.300,3.000,0.500,1.000,1.000,0,5.000,0
"04/05/08","05:11:30",14161.000,"cc",28338.217,6.00,6,0.100,13827.000,0.200,332.000,0.300,2.000,0.500,0,1.000,0,5.000,0
"04/05/08","05:11:36",13753.000,"cc",28297.955,6.00,6,0.100,13404.000,0.200,345.000,0.300,4.000,0.500,0,1.000,0,5.000,0
"04/05/08","05:11:42",14083.000,"cc",28309.117,6.00,6,0.100,13713.000,0.200,367.000,0.300,3.000,0.500,0,1.000,0,5.000,0
"04/05/08","05:11:48",14001.000,"cc",28289.481,6.00,6,0.100,13613.000,0.200,383.000,0.300,5.000,0.500,0,1.000,0,5.000,0
"04/05/08","05:11:54",14093.000,"cc",28357.383,6.00,6,0.100,13734.000,0.200,355.000,0.300,4.000,0.500,0,1.000,0,5.000,0
"04/05/08","05:12:00",13721.000,"cc",28297.846,6.00,6,0.100,13381.000,0.200,338.000,0.300,2.000,0.500,0,1.000,0,5.000,0
"04/05/08","05:12:06",13890.000,"cc",28331.520,6.00,6,0.100,13541.000,0.200,345.000,0.300,4.000,0.500,0,1.000,0,5.000,0
"04/05/08","05:12:12",13917.000,"cc",28331.852,6.00,6,0.100,13564.000,0.200,346.000,0.300,7.000,0.500,0,1.000,0,5.000,0
"04/05/08","05:12:18",13929.000,"cc",28312.693,6.00,6,0.100,13540.000,0.200,384.000,0.300,5.000,0.500,0,1.000,0,5.000,0
"04/05/08","05:12:24",13975.000,"cc",28327.207,6.00,6,0.100,13615.000,0.200,354.000,0.300,6.000,0.500,0,1.000,0,5.000,0
"04/05/08","05:12:30",14082.000,"cc",28280.703,6.00,6,0.100,13722.000,0.200,355.000,0.300,4.000,0.500,0,1.000,1.000,5.000,0
"04/05/08","05:12:36",14080.000,"cc",28330.445,6.00,6,0.100,13740.000,0.200,335.000,0.300,5.000,0.500,0,1.000,0,5.000,0
"04/05/08","05:12:42",14439.000,"cc",28335.840,6.00,6,0.100,14067.000,0.200,367.000,0.300,5.000,0.500,0,1.000,0,5.000,0
"04/05/08","05:12:48",14206.000,"cc",28373.775,6.00,6,0.100,13875.000,0.200,326.000,0.300,5.000,0.500,0,1.000,0,5.000,0
"04/05/08","05:12:54",14098.000,"cc",28255.404,6.00,6,0.100,13744.000,0.200,351.000,0.300,3.000,0.500,0,1.000,0,5.000,0
"04/05/08","05:13:00",14024.000,"cc",28307.467,6.00,6,0.100,13619.000,0.200,403.000,0.300,2.000,0.500,0,1.000,0,5.000,0
"04/05/08","05:13:06",14244.000,"cc",28334.033,6.00,6,0.100,13873.000,0.200,362.000,0.300,9.000,0.500,0,1.000,0,5.000,0
"04/05/08","05:13:12",14053.000,"cc",28365.801,6.00,6,0.100,13694.000,0.200,357.000,0.300,2.000,0.500,0,1.000,0,5.000,0
"04/05/08","05:13:18",14177.000,"cc",28285.342,6.00,6,0.100,13799.000,0.200,363.000,0.300,15.000,0.500,0,1.000,0,5.000,0
"04/05/08","05:13:24",14060.000,"cc",28318.559,6.00,6,0.100,13712.000,0.200,343.000,0.300,5.000,0.500,0,1.000,0,5.000,0
"04/05/08","05:13:30",14357.000,"cc",28326.826,6.00,6,0.100,13951.000,0.200,402.000,0.300,4.000,0.500,0,1.000,0,5.000,0
"04/05/08","05:13:36",14526.000,"cc",28264.813,6.00,6,0.100,14137.000,0.200,381.000,0.300,8.000,0.500,0,1.000,0,5.000,0
"04/05/08","05:13:42",14404.000,"cc",28348.199,6.00,6,0.100,14026.000,0.200,373.000,0.300,5.000,0.500,0,1.000,0,5.000,0
"04/05/08","05:13:48",14168.000,"cc",28321.053,6.00,6,0.100,13792.000,0.200,376.000,0.300,0,0.500,0,1.000,0,5.000,0
"04/05/08","05:13:54",14338.000,"cc",28331.000,6.00,6,0.100,13988.000,0.200,345.000,0.300,5.000,0.500,0,1.000,0,5.000,0
"04/05/08","05:14:00",14737.000,"cc",28356.002,6.00,6,0.100,14388.000,0.200,346.000,0.300,3.000,0.500,0,1.000,0,5.000,0
"04/05/08","05:14:06",14005.000,"cc",28264.918,6.00,6,0.100,13649.000,0.200,353.000,0.300,3.000,0.500,0,1.000,0,5.000,0
"04/05/08","05:14:12",14622.000,"cc",28283.057,6.00,6,0.100,14263.000,0.200,356.000,0.300,3.000,0.500,0,1.000,0,5.000,0
"04/05/08","05:14:18",14374.000,"cc",28336.035,6.00,6,0.100,13995.000,0.200,375.000,0.300,4.000,0.500,0,1.000,0,5.000,0
"04/05/08","05:14:24",14582.000,"cc",28295.838,6.00,6,0.100,14213.000,0.200,365.000,0.300,4.000,0.500,0,1.000,0,5.000,0
"04/05/08","05:14:30",14388.000,"cc",28331.225,6.00,6,0.100,14014.000,0.200,367.000,0.300,7.000,0.500,0,1.000,0,5.000,0
"04/05/08","05:14:36",14401.000,"cc",28321.266,6.00,6,0.100,13974.000,0.200,424.000,0.300,3.000,0.500,0,1.000,0,5.000,0
"04/05/08","05:14:42",14552.000,"cc",28302.074,6.00,6,0.100,14196.000,0.200,353.000,0.300,3.000,0.500,0,1.000,0,5.000,0
"04/05/08","05:14:48",14310.000,"cc",28336.527,6.00,6,0.100,13958.000,0.200,347.000,0.300,5.000,0.500,0,1.000,0,5.000,0
"04/05/08","05:14:54",14722.000,"cc",28285.875,6.00,6,0.100,14324.000,0.200,393.000,0.300,5.000,0.500,0,1.000,0,5.000,0
"04/05/08","05:15:00",14764.000,"cc",28308.572,6.00,6,0.100,14351.000,0.200,412.000,0.300,1.000,0.500,0,1.000,0,5.000,0
"04/05/08","05:15:06",14663.000,"cc",28320.506,6.00,6,0.100,14270.000,0.200,392.000,0.300,1.000,0.500,0,1.000,0,5.000,0
"04/05/08","05:15:12",14668.000,"cc",28354.486,6.00,6,0.100,14284.000,0.200,381.000,0.300,3.000,0.500,0,1.000,0,5.000,0
"04/05/08","05:15:18",14967.000,"cc",28312.703,6.00,6,0.100,14586.000,0.200,372.000,0.300,9.000,0.500,0,1.000,0,5.000,0
"04/05/08","05:15:24",14141.000,"cc",28353.758,6.00,6,0.100,13801.000,0.200,334.000,0.300,6.000,0.500,0,1.000,0,5.000,0
"04/05/08","05:15:30",14620.000,"cc",28262.213,6.00,6,0.100,14245.000,0.200,368.000,0.300,7.000,0.500,0,1.000,0,5.000,0
"04/05/08","05:15:36",14486.000,"cc",28354.180,6.00,6,0.100,14178.000,0.200,305.000,0.300,3.000,0.500,0,1.000,0,5.000,0
"04/05/08","05:15:42",14450.000,"cc",28311.688,6.00,6,0.100,14131.000,0.200,317.000,0.300,2.000,0.500,0,1.000,0,5.000,0
"04/05/08","05:15:48",14271.000,"cc",28274.912,6.00,6,0.100,13976.000,0.200,288.000,0.300,7.000,0.500,0,1.000,0,5.000,0
"04/05/08","05:15:54",14541.000,"cc",28341.371,6.00,6,0.100,14230.000,0.200,309.000,0.300,2.000,0.500,0,1.000,0,5.000,0
"04/05/08","05:16:00",14111.000,"cc",28301.512,6.00,6,0.100,13813.000,0.200,295.000,0.300,3.000,0.500,0,1.000,0,5.000,0
"04/05/08","05:16:06",15007.000,"cc",28305.766,6.00,6,0.100,14641.000,0.200,364.000,0.300,2.000,0.500,0,1.000,0,5.000,0
"04/05/08","05:16:12",14774.000,"cc",28346.777,6.00,6,0.100,14424.000,0.200,345.000,0.300,5.000,0.500,0,1.000,0,5.000,0
"04/05/08","05:16:18",14965.000,"cc",28334.145,6.00,6,0.100,14602.000,0.200,360.000,0.300,3.000,0.500,0,1.000,0,5.000,0
"04/05/08","05:16:24",15118.000,"cc",28335.219,6.00,6,0.100,14730.000,0.200,385.000,0.300,3.000,0.500,0,1.000,0,5.000,0
"04/05/08","05:16:30",14639.000,"cc",28271.695,6.00,6,0.100,14309.000,0.200,324.000,0.300,6.000,0.500,0,1.000,0,5.000,0
"04/05/08","05:16:36",14733.000,"cc",28303.510,6.00,6,0.100,14363.000,0.200,367.000,0.300,3.000,0.500,0,1.000,0,5.000,0
"04/05/08","05:16:42",15301.000,"cc",28326.315,6.00,6,0.100,14909.000,0.200,385.000,0.300,7.000,0.500,0,1.000,0,5.000,0
"04/05/08","05:16:48",15479.000,"cc",28319.815,6.00,6,0.100,15106.000,0.200,366.000,0.300,6.000,0.500,0,1.000,1.000,5.000,0
"04/05/08","05:16:54",15549.000,"cc",28327.051,6.00,6,0.100,15108.000,0.200,436.000,0.300,5.000,0.500,0,1.000,0,5.000,0
"04/05/08","05:17:00",15088.000,"cc",28258.106,6.00,6,0.100,14703.000,0.200,384.000,0.300,1.000,0.500,0,1.000,0,5.000,0
"04/05/08","05:17:06",14966.000,"cc",28333.797,6.00,6,0.100,14577.000,0.200,384.000,0.300,5.000,0.500,0,1.000,0,5.000,0
"04/05/08","05:17:12",14845.000,"cc",28343.236,6.00,6,0.100,14522.000,0.200,321.000,0.300,2.000,0.500,0,1.000,0,5.000,0
"04/05/08","05:17:18",15563.000,"cc",28322.332,6.00,6,0.100,15167.000,0.200,394.000,0.300,2.000,0.500,0,1.000,0,5.000,0
"04/05/08","05:17:24",14644.000,"cc",28348.672,6.00,6,0.100,14305.000,0.200,335.000,0.300,4.000,0.500,0,1.000,0,5.000,0
"04/05/08","05:17:30",15113.000,"cc",28317.621,6.00,6,0.100,14746.000,0.200,366.000,0.300,1.000,0.500,0,1.000,0,5.000,0
"04/05/08","05:17:36",15262.000,"cc",28277.891,6.00,6,0.100,14845.000,0.200,411.000,0.300,6.000,0.500,0,1.000,0,5.000,0
"04/05/08","05:17:42",15340.000,"cc",28280.867,6.00,6,0.100,14934.000,0.200,398.000,0.300,8.000,0.500,0,1.000,0,5.000,0
"04/05/08","05:17:48",14754.000,"cc",28350.301,6.00,6,0.100,14356.000,0.200,394.000,0.300,4.000,0.500,0,1.000,0,5.000,0
"04/05/08","05:17:54",15019.000,"cc",28331.502,6.00,6,0.100,14640.000,0.200,375.000,0.300,4.000,0.500,0,1.000,0,5.000,0
"04/05/08","05:18:00",14862.000,"cc",28317.514,6.00,6,0.100,14495.000,0.200,358.000,0.300,9.000,0.500,0,1.000,0,5.000,0
"04/05/08","05:18:06",15012.000,"cc",28293.965,6.00,6,0.100,14653.000,0.200,354.000,0.300,5.000,0.500,0,1.000,0,5.000,0
"04/05/08","05:18:12",14902.000,"cc",28345.533,6.00,6,0.100,14561.000,0.200,337.000,0.300,4.000,0.500,0,1.000,0,5.000,0
"04/05/08","05:18:18",14241.000,"cc",28310.807,6.00,6,0.100,13928.000,0.200,308.000,0.300,5.000,0.500,0,1.000,0,5.000,0
"04/05/08","05:18:24",15068.000,"cc",28350.537,6.00,6,0.100,14685.000,0.200,377.000,0.300,6.000,0.500,0,1.000,0,5.000,0
"04/05/08","05:18:30",15171.000,"cc",28312.875,6.00,6,0.100,14802.000,0.200,361.000,0.300,8.000,0.500,0,1.000,0,5.000,0
"04/05/08","05:18:36",14662.000,"cc",28305.830,6.00,6,0.100,14363.000,0.200,296.000,0.300,3.000,0.500,0,1.000,0,5.000,0